GEFSMW_500_meanwind_186.txt.gz
Wind_Speed
26 26 27 28 28 29 31 31 31 33 34 35 35 34 36 37 37 38 39 39 40 40 40 40 38 36 36 35 35 36 35 35 34 33 33 33 33 33 33 32 32 33 33
25 25 27 28 28 28 29 29 29 30 33 35 36 35 34 36 37 38 38 39 40 41 40 40 39 38 36 35 36 36 36 36 36 35 34 34 34 35 34 34 34 35 35
24 25 26 27 27 27 27 28 28 29 31 33 34 34 35 35 36 36 37 38 39 40 41 41 39 38 37 37 37 37 37 38 38 37 36 36 36 36 37 37 37 37 37
22 23 24 25 26 27 28 28 27 27 29 30 31 32 32 33 35 36 37 37 38 38 40 40 40 39 38 39 39 39 39 39 40 40 39 39 39 38 39 39 39 39 40
21 22 23 24 25 26 26 27 27 27 28 29 30 30 30 31 33 34 36 36 37 38 40 40 40 40 40 39 39 39 39 40 41 41 41 41 41 41 41 41 42 42 42
21 21 22 23 25 26 26 26 26 26 27 27 28 29 30 30 31 32 34 35 35 36 37 39 40 40 40 40 39 39 40 41 43 44 44 44 43 43 43 43 43 43 44
22 21 22 23 24 25 25 25 26 27 27 27 28 29 30 30 32 33 34 35 36 36 37 38 39 40 40 40 40 41 41 42 43 44 46 47 47 46 45 45 45 45 45
22 22 22 23 24 26 27 27 27 27 28 28 29 30 30 31 31 32 32 34 35 36 37 37 38 39 40 40 41 42 41 42 44 45 46 48 49 48 48 47 46 47 47
22 23 23 23 24 25 27 27 27 27 28 29 30 30 31 32 32 32 32 33 35 36 37 37 39 40 41 42 42 42 43 44 44 45 45 46 47 47 48 48 48 48 48
23 23 24 24 25 26 27 28 29 28 29 29 29 30 31 33 33 34 34 34 35 36 37 38 39 40 40 41 41 42 44 43 44 45 45 47 48 48 48 49 49 49 49
23 24 25 25 26 26 27 29 30 30 30 29 29 30 31 32 33 34 35 36 36 37 38 39 40 40 41 41 42 42 42 44 45 46 46 47 47 49 49 50 50 50 50
24 24 25 26 27 28 28 28 30 30 31 31 32 31 31 31 32 33 34 34 36 37 39 39 39 40 42 43 44 44 44 45 46 47 47 47 48 49 50 50 50 51 51
25 25 26 27 27 28 29 29 30 30 31 32 33 33 33 34 34 35 35 36 37 37 38 39 40 41 42 44 45 45 46 46 46 46 47 48 49 49 50 50 51 52 53
25 25 26 27 27 28 29 30 30 31 31 32 33 34 35 36 37 37 38 39 39 39 39 40 41 42 43 44 44 45 47 47 46 46 47 48 49 49 51 52 53 53 54
25 26 26 27 28 28 29 29 29 30 31 32 33 34 35 36 37 38 39 40 41 42 42 43 43 44 44 45 45 46 47 47 47 47 48 48 49 50 51 52 53 54 54
26 26 26 26 27 27 28 29 29 30 31 32 33 35 36 38 39 40 41 41 42 43 43 44 44 45 45 46 45 46 47 47 47 47 48 49 49 50 51 52 53 53 53
26 26 26 26 26 27 28 29 30 31 31 32 33 34 35 37 39 40 41 42 42 43 43 43 44 44 45 45 46 46 47 46 46 47 48 49 49 50 51 52 52 52 53
28 28 27 27 27 28 28 29 30 31 32 33 34 35 36 36 38 39 40 40 41 42 42 42 43 44 44 44 45 46 46 46 47 48 49 49 49 50 51 51 51 52 52
30 29 29 29 29 29 29 30 30 30 31 33 34 35 36 37 38 39 40 40 41 41 42 42 43 44 44 45 46 47 47 48 48 48 49 49 50 50 50 51 51 52 52
31 31 31 31 31 32 32 32 32 33 33 34 35 35 36 37 38 39 39 40 40 41 42 43 43 44 44 45 46 47 48 48 48 48 49 49 50 50 51 51 52 52 52
33 33 33 33 33 34 34 34 34 35 35 36 36 37 38 38 39 39 40 41 41 42 42 43 44 44 45 46 46 47 48 49 49 49 49 49 49 50 51 52 52 52 52
35 35 35 36 36 36 36 36 36 37 38 38 39 39 40 40 40 41 41 41 42 42 43 43 43 44 45 45 46 47 47 48 48 48 48 48 49 49 50 51 52 52 53
37 37 37 38 38 38 37 38 38 39 40 40 40 40 41 41 41 42 42 43 43 43 43 43 44 44 45 45 46 47 47 48 47 47 47 48 48 49 50 50 51 52 53
38 39 38 38 39 39 39 39 40 40 41 41 41 41 42 42 42 43 43 43 43 43 43 43 43 44 45 45 46 47 47 47 48 48 48 48 48 49 50 50 50 51 53
39 39 39 39 39 40 41 41 41 41 41 42 42 42 42 42 43 42 42 43 43 43 44 44 44 45 45 46 46 47 47 48 49 49 49 48 48 48 49 50 51 51 52
39 40 40 40 40 41 41 41 42 42 42 42 42 42 42 42 42 42 42 43 43 44 45 45 45 45 46 46 47 47 47 48 49 49 48 48 49 49 49 50 50 51 51

GEFSMW_500_meanwind_192.txt.gz
Wind_Speed
23 24 25 26 27 26 26 27 27 29 31 34 34 33 33 34 35 35 36 37 37 37 39 40 39 38 39 40 39 39 38 37 35 36 38 37 37 36 36 36 36 36 35
23 24 24 25 27 27 26 28 29 29 30 32 33 34 33 33 34 35 35 36 37 37 38 40 41 40 39 39 38 39 38 37 37 37 39 39 39 39 38 38 37 37 37
22 23 24 25 26 26 27 27 28 29 30 31 32 33 33 32 33 35 35 35 36 36 37 38 39 39 39 40 41 40 39 38 39 38 38 38 38 39 39 39 39 39 39
22 22 23 24 25 26 27 28 29 30 30 30 30 32 32 32 33 35 36 36 35 36 35 36 38 39 40 40 40 40 39 38 38 38 38 39 40 40 40 40 40 40 41
22 22 23 24 24 25 27 28 28 30 30 30 30 31 31 32 32 34 35 36 36 35 35 35 36 38 39 39 39 39 40 41 41 39 39 39 40 41 40 41 42 42 42
22 23 22 23 24 25 26 27 27 29 29 29 30 31 32 32 32 33 34 34 34 35 35 36 36 37 38 38 38 39 40 41 41 41 41 40 40 41 41 42 42 43 43
24 23 23 23 23 24 25 25 26 28 29 29 29 30 31 31 32 32 33 34 35 35 36 36 36 36 37 38 38 39 40 41 41 42 43 43 43 43 44 44 45 46 46
24 24 24 24 23 24 26 25 26 27 28 29 29 31 31 30 32 32 33 34 36 36 37 36 36 36 37 38 39 40 41 42 42 43 44 45 45 45 45 46 47 48 49
24 23 24 24 24 24 25 26 27 27 28 29 30 30 31 30 31 32 33 35 37 38 38 38 37 37 38 39 41 41 42 42 43 43 44 46 46 47 47 47 48 49 49
23 23 24 24 25 25 25 25 26 27 27 28 29 30 30 31 31 34 35 35 37 39 40 40 40 39 39 40 41 42 43 43 43 44 45 45 46 46 46 47 48 49 50
23 23 24 24 25 25 26 26 27 27 28 28 29 30 31 32 33 33 35 36 37 39 40 40 40 39 40 40 41 42 43 43 43 44 45 46 47 47 47 48 48 49 50
23 24 24 25 25 26 27 28 28 28 29 30 30 30 31 32 34 35 36 36 37 37 38 40 40 40 41 42 42 42 43 43 44 44 46 48 49 49 48 48 48 49 50
24 25 25 25 26 26 27 28 29 29 29 30 30 31 33 33 33 34 35 35 36 38 39 40 40 40 40 41 42 42 42 42 44 45 46 49 50 49 49 49 49 49 50
25 25 26 26 25 26 27 28 29 30 30 31 31 31 32 33 33 33 34 34 36 37 38 38 38 39 40 41 42 42 43 44 45 46 47 49 49 49 49 49 49 50 50
27 26 26 26 26 26 27 28 29 30 31 31 32 32 33 33 33 34 34 35 36 37 38 38 39 41 41 42 43 44 45 46 46 47 47 48 48 48 49 49 50 51 52
28 28 27 27 27 27 27 27 28 29 30 31 32 33 34 34 35 35 35 36 37 38 39 40 41 42 42 43 44 45 45 46 47 47 47 47 48 49 49 50 50 51 53
28 28 28 28 28 28 28 28 28 28 29 30 31 31 32 33 34 36 37 38 39 40 40 40 41 41 43 44 44 45 45 45 45 45 46 46 48 49 50 51 52 53 53
29 29 28 28 28 28 29 29 29 29 29 30 30 31 32 33 34 36 37 38 38 39 40 40 40 41 42 43 43 44 44 44 44 45 46 47 48 50 51 52 53 53 53
29 29 30 29 29 29 30 30 31 31 31 31 31 32 33 33 34 35 36 37 38 39 39 40 40 41 41 42 43 44 45 46 46 47 47 48 49 50 51 52 52 52 52
31 31 31 31 31 31 31 32 32 32 32 32 33 33 34 35 35 36 37 37 38 39 40 40 40 40 41 42 43 45 46 47 46 46 47 48 49 50 50 51 51 50 51
32 32 32 32 33 33 33 33 33 33 34 34 34 35 35 35 36 37 37 38 39 39 40 40 41 42 42 43 44 45 46 46 46 47 47 48 48 49 49 50 50 50 51
33 33 33 33 33 33 33 34 34 34 34 35 35 35 36 36 37 38 38 39 39 40 40 41 41 42 43 44 45 46 47 47 47 47 48 48 48 48 49 49 49 50 51
34 34 34 34 33 33 34 34 34 34 35 36 36 37 37 38 38 39 39 39 40 40 41 42 43 44 44 45 46 46 46 47 47 47 47 48 48 48 49 49 50 50 51
35 35 35 34 34 34 34 35 35 35 36 37 38 38 39 40 40 40 40 41 41 41 42 43 44 44 44 45 45 46 46 46 47 47 48 48 49 49 49 49 50 50 50
35 35 35 35 35 35 36 36 36 37 37 38 39 40 40 41 42 41 41 41 42 42 43 43 44 44 45 45 46 46 47 47 47 48 48 48 49 49 49 49 49 49 50
36 36 36 36 36 36 37 37 37 38 38 39 39 40 40 41 41 41 41 41 41 42 43 44 44 45 45 46 46 46 46 47 47 48 48 48 48 48 48 49 49 49 49

GEFSMW_500_meanwind_198.txt.gz
Wind_Speed
26 25 26 27 27 27 27 28 29 30 30 32 32 33 34 35 36 37 38 37 36 36 36 38 40 40 40 41 40 40 40 39 38 39 40 40 39 39 38 37 38 38 38
25 25 25 26 26 26 27 28 28 30 30 30 32 33 35 35 35 36 38 37 37 36 35 36 38 39 38 39 40 40 40 41 40 40 40 41 41 40 40 39 39 39 40
24 24 24 25 25 26 26 27 28 29 30 30 31 32 33 34 34 35 36 36 36 36 37 37 37 38 38 38 39 40 41 41 41 41 41 41 41 40 41 41 41 40 40
24 24 25 25 25 26 26 27 28 30 30 31 31 32 32 33 33 33 35 36 36 36 37 37 38 38 37 38 39 40 40 41 42 41 41 42 43 42 42 41 41 41 41
25 25 26 26 26 26 27 27 28 30 30 30 31 31 31 31 32 32 33 34 36 37 38 38 38 38 38 38 39 40 40 41 42 41 41 41 42 42 43 42 42 41 42
25 25 26 27 27 27 27 27 27 29 30 30 30 31 31 31 31 32 34 34 35 36 38 38 39 38 38 38 38 39 40 40 41 41 41 42 42 42 42 42 41 41 42
26 26 27 28 28 28 28 27 27 28 28 29 29 31 31 32 32 33 33 33 34 36 37 38 39 39 39 39 39 39 38 39 41 42 42 42 42 41 42 43 43 43 43
27 28 28 28 29 28 29 29 28 28 28 28 29 30 31 32 33 33 33 34 35 36 37 37 38 39 40 40 39 39 38 39 40 40 41 41 41 41 42 43 44 44 44
27 28 28 28 29 30 30 29 29 28 28 28 29 30 31 33 33 33 34 35 36 36 36 37 38 39 40 41 42 41 40 40 38 38 40 42 43 43 45 44 44 46 46
27 28 28 28 28 29 29 29 29 29 29 30 30 31 31 33 34 35 36 36 37 37 37 37 38 39 40 41 43 43 43 43 42 41 41 43 44 45 46 46 47 47 47
27 27 28 28 28 28 28 28 29 29 29 30 31 31 32 33 35 36 36 37 37 38 38 38 39 40 40 41 43 44 45 45 45 45 45 45 45 47 47 47 47 47 48
28 28 28 29 28 28 28 28 28 29 30 31 31 32 32 33 34 35 36 36 37 38 39 40 40 40 41 41 42 43 44 45 45 46 46 46 46 46 46 46 47 48 49
29 29 29 29 29 29 29 29 28 29 30 31 32 32 33 34 34 34 35 36 37 38 38 39 40 41 42 42 43 43 43 44 45 46 47 47 47 47 47 48 48 49 49
30 30 29 29 29 29 29 29 30 30 30 30 31 32 33 34 35 35 36 36 37 38 38 38 40 41 42 42 43 44 44 45 46 47 47 47 48 48 48 49 49 49 50
31 31 30 30 30 30 30 30 30 31 32 31 31 32 32 32 34 35 35 35 36 37 37 38 39 41 42 43 44 44 45 45 46 47 47 48 48 48 49 49 49 50 50
32 32 31 31 31 31 31 31 31 32 32 32 33 33 33 33 34 34 35 35 36 37 38 39 39 40 41 42 43 44 44 45 45 46 47 48 48 49 50 50 50 50 51
32 32 32 32 31 32 32 32 32 33 33 34 34 33 34 34 34 35 36 36 37 37 38 38 39 40 42 43 43 43 44 45 46 47 47 47 48 49 49 49 49 49 50
33 33 33 33 33 32 33 33 33 34 34 34 34 34 34 34 34 34 35 36 37 37 38 38 39 40 42 43 43 44 45 46 46 47 47 47 47 48 48 48 48 48 49
35 35 35 35 34 33 33 34 33 33 33 34 34 34 34 34 33 34 34 35 36 37 38 38 39 40 42 43 43 44 45 46 46 46 46 46 46 47 47 48 48 48 49
36 36 37 36 36 35 34 35 35 34 34 34 34 34 35 34 34 34 36 36 37 38 39 39 39 40 41 42 43 44 44 44 44 44 45 45 46 47 47 48 49 49 50
37 37 37 37 37 37 36 35 35 35 35 35 35 35 36 36 36 36 37 38 38 39 40 40 41 42 43 43 43 44 44 44 44 44 45 46 46 47 48 49 49 50 51
38 38 38 37 37 37 37 37 36 36 36 36 36 36 36 37 37 37 38 39 39 40 40 41 42 43 43 43 43 43 44 44 43 44 45 46 47 48 49 50 50 50 51
39 39 38 38 38 37 37 37 36 36 36 36 36 37 37 37 38 38 39 40 40 41 42 42 42 42 42 43 43 44 44 44 44 45 46 47 48 48 49 49 50 50 50
40 39 39 38 38 37 37 36 36 36 36 36 37 37 38 38 39 40 41 42 42 42 43 44 43 43 43 42 43 44 44 44 45 46 47 47 48 48 48 49 50 50 51
38 38 38 38 38 37 37 36 36 36 36 37 38 38 38 39 40 40 41 41 42 43 43 42 42 42 41 42 42 43 44 44 45 46 46 47 47 48 48 49 50 51 51
36 36 37 37 37 36 36 36 36 36 37 37 37 38 38 39 39 39 39 40 41 40 40 40 40 41 41 42 42 43 44 45 45 45 46 47 48 48 49 49 50 51 51

GEFSMW_500_meanwind_204.txt.gz
Wind_Speed
25 27 27 28 27 27 28 29 30 30 30 31 32 32 33 34 34 35 36 37 38 39 40 41 40 39 40 41 41 41 40 39 40 40 40 40 40 39 39 40 40 39 38
23 25 26 27 27 27 27 28 29 30 31 31 32 33 33 33 33 35 36 37 38 38 39 40 41 41 42 42 42 41 41 40 39 40 41 41 40 40 40 40 40 40 40
22 22 23 25 25 25 26 27 29 30 30 31 32 33 33 34 34 35 36 37 38 39 39 40 41 42 41 42 42 42 41 42 42 40 41 41 41 40 40 41 41 42 42
23 22 23 24 24 25 26 28 28 29 29 29 30 31 33 35 35 35 36 36 38 39 40 40 41 41 41 41 41 42 42 42 42 43 42 42 42 41 40 42 43 43 43
24 24 24 23 24 25 26 28 29 29 29 30 31 32 32 34 35 35 36 37 37 38 39 40 41 41 41 41 41 42 41 41 42 42 42 42 43 43 43 43 44 44 44
25 25 24 24 24 24 26 27 28 29 29 31 31 32 32 33 33 34 34 36 37 37 38 38 40 40 41 41 41 42 43 41 41 41 42 43 42 43 44 43 43 44 44
25 25 25 25 25 25 25 26 28 29 30 31 31 32 32 32 32 32 33 35 36 36 37 38 39 40 40 40 41 42 44 44 43 43 42 42 42 42 43 44 43 44 45
25 25 25 26 26 26 25 26 27 28 29 30 31 32 32 33 33 32 33 34 35 36 37 38 38 39 40 41 41 42 43 44 45 45 44 42 42 42 42 44 44 45 45
25 25 25 26 27 27 26 26 27 28 29 30 30 31 31 32 33 33 34 34 35 35 37 38 39 39 40 42 42 42 42 42 43 44 44 44 43 42 42 43 43 44 45
26 26 26 26 27 28 28 27 27 28 30 30 31 31 31 33 34 34 35 36 37 38 38 39 40 40 40 42 42 42 42 42 42 43 44 45 45 45 44 44 44 44 46
27 27 27 27 28 29 28 27 27 28 30 31 32 32 32 33 34 35 36 37 37 38 40 41 41 41 40 41 42 41 42 43 43 43 44 45 45 45 44 44 44 44 46
27 28 27 27 28 28 28 28 28 28 29 31 33 34 33 33 34 35 36 37 36 37 38 40 41 41 41 42 42 42 43 43 43 43 43 43 44 45 45 45 45 45 46
29 29 29 29 28 29 28 29 28 28 29 30 31 33 33 32 33 34 35 36 36 37 37 38 39 40 41 41 42 42 42 42 43 43 44 44 44 46 47 47 47 47 47
29 29 29 29 29 29 29 29 29 29 28 29 30 32 32 32 32 33 35 35 35 36 37 38 39 39 40 41 41 42 43 43 43 44 44 44 45 46 46 47 48 48 48
31 31 31 31 30 30 30 30 30 29 30 30 30 32 33 33 33 34 34 35 35 35 36 37 38 39 40 41 41 43 44 44 45 45 45 46 46 47 48 48 49 50 49
33 33 33 32 32 32 31 31 31 31 31 31 32 32 33 33 34 34 34 35 35 35 35 35 37 39 40 41 42 43 45 45 46 47 47 48 49 49 49 49 50 51 51
34 34 34 34 34 33 33 33 33 32 33 33 33 34 34 34 33 33 34 35 35 35 36 36 37 38 39 40 41 42 43 44 46 47 48 48 49 50 50 49 50 51 51
34 35 35 35 35 35 34 34 34 34 34 35 35 36 36 36 35 35 35 34 35 36 36 37 37 37 38 40 41 42 43 44 46 47 48 49 49 49 50 50 51 51 52
34 34 34 35 35 35 35 35 35 36 36 36 36 36 36 36 36 36 36 36 36 37 37 38 38 38 38 39 41 43 44 44 45 47 48 49 49 49 50 50 51 52 53
34 35 35 35 35 35 36 36 36 37 37 37 36 37 36 36 36 36 37 37 37 37 38 38 39 39 39 40 41 43 44 45 46 47 47 48 48 49 49 49 50 51 52
35 35 35 35 35 35 36 36 36 36 36 36 37 37 37 37 37 37 37 38 38 38 38 39 40 40 41 41 42 43 44 44 45 45 45 46 47 48 48 49 49 49 50
36 36 35 36 36 36 36 36 36 36 36 36 36 36 36 36 37 37 38 39 39 39 39 39 40 40 41 42 43 44 44 43 43 44 45 45 46 46 46 47 47 48 48
37 37 37 37 37 36 36 36 36 36 35 34 34 35 35 36 36 36 36 37 38 38 39 39 39 40 41 41 42 42 43 43 44 44 44 44 45 45 45 46 47 47 47
37 37 37 36 36 35 35 35 35 35 35 34 34 34 34 34 35 35 35 36 37 38 38 39 40 40 40 41 41 41 42 42 43 43 43 44 44 45 45 46 46 46 46
36 36 36 35 35 34 34 35 35 35 35 35 35 34 34 33 34 34 35 36 37 38 39 39 40 39 40 40 40 41 41 42 43 43 43 44 44 44 44 44 45 46 46
32 33 33 33 33 34 34 35 35 35 35 35 34 34 33 33 34 34 35 36 37 38 39 39 39 39 39 39 39 40 40 40 41 42 42 43 43 43 43 43 44 45 46

GEFSMW_500_meanwind_210.txt.gz
Wind_Speed
28 28 27 27 28 28 29 29 30 31 32 32 32 34 34 35 36 36 36 36 36 36 37 37 37 38 38 38 39 39 40 41 41 40 40 40 40 40 40 39 39 39 39
28 28 27 27 27 28 29 30 30 30 30 31 32 33 34 34 35 36 35 36 36 37 37 37 38 38 38 38 39 40 40 41 41 41 40 40 40 41 41 41 41 41 41
28 28 28 28 28 28 29 29 29 29 30 31 32 32 33 33 34 35 35 35 36 37 37 37 37 37 38 38 38 39 39 41 42 42 42 42 41 41 40 41 41 41 41
30 29 28 28 28 29 29 28 28 29 29 30 31 32 33 34 34 34 34 35 35 36 36 36 36 37 38 39 39 39 39 40 41 42 43 43 43 42 42 41 41 42 41
31 30 29 28 28 29 29 28 29 28 28 29 31 31 32 32 33 33 34 34 34 34 35 36 37 37 38 39 39 39 40 40 40 41 42 43 43 43 43 43 43 42 42
31 31 30 29 28 28 29 29 29 29 29 30 31 31 32 32 32 34 34 34 35 35 35 36 36 37 38 39 39 39 40 41 41 41 41 43 43 43 43 44 45 44 43
33 32 31 29 28 28 28 29 29 30 30 30 31 32 33 32 32 33 35 35 36 35 36 37 37 37 38 39 39 39 40 40 41 41 41 42 42 42 43 44 44 45 45
33 32 31 30 29 29 28 29 29 29 30 30 30 31 32 32 32 33 34 35 36 36 36 37 37 37 37 38 40 40 41 41 42 43 43 42 42 43 43 43 44 45 46
31 31 31 31 30 30 30 30 29 30 30 30 30 30 31 31 31 32 34 34 36 36 36 37 37 37 38 38 39 40 41 42 42 43 44 44 44 44 45 45 45 46 45
31 31 31 31 31 31 30 30 30 30 30 29 30 30 30 32 32 32 33 33 33 35 35 36 37 38 39 39 40 40 41 42 43 43 43 45 45 45 45 45 46 46 45
31 31 31 31 31 30 30 29 30 30 30 29 30 30 30 31 32 32 33 33 34 35 36 36 37 37 38 39 40 41 42 42 43 44 44 45 45 45 45 45 45 45 45
32 31 31 31 31 31 30 30 30 30 29 29 30 30 31 31 32 33 33 34 35 36 36 37 39 39 39 40 41 41 41 42 43 43 43 44 44 44 45 45 45 45 45
33 32 32 32 31 31 31 31 31 31 30 30 30 31 31 31 32 32 33 34 35 36 37 38 39 39 39 40 41 42 42 42 42 42 42 43 43 44 44 44 44 44 45
33 33 33 32 32 32 32 31 31 31 31 30 30 31 31 32 32 33 34 35 36 36 37 38 39 39 39 40 41 42 42 42 42 43 43 43 43 44 44 45 46 45 45
33 33 33 33 32 32 32 31 31 31 31 31 31 32 32 33 34 34 34 35 35 36 36 37 37 38 38 39 40 41 41 42 42 43 43 44 44 44 45 45 46 47 47
33 33 33 33 33 33 32 32 31 31 32 32 32 33 33 33 34 34 34 35 35 35 36 37 37 37 37 38 40 40 40 41 41 41 42 43 43 44 45 46 46 47 48
34 34 33 33 34 34 33 33 33 33 33 34 34 35 35 34 34 34 35 35 36 36 36 37 38 38 38 39 39 40 41 41 41 41 41 43 44 45 46 46 46 47 48
34 33 34 34 34 34 34 34 34 34 34 34 35 35 36 36 35 35 36 36 36 36 36 37 37 38 39 39 39 40 41 42 42 42 42 43 44 45 46 46 46 46 47
34 33 34 35 35 35 35 35 35 35 35 36 36 36 36 36 36 36 36 37 37 38 38 38 38 39 39 40 40 40 40 41 42 42 43 43 44 45 46 46 47 47 47
34 34 34 34 35 35 36 36 36 36 36 37 37 38 37 37 37 38 38 38 39 39 39 39 39 40 40 41 41 41 41 41 42 43 43 44 44 45 46 47 48 48 48
34 34 35 35 35 35 36 36 36 37 37 37 37 37 37 37 38 38 38 38 39 39 39 39 39 40 41 41 41 41 42 42 43 43 44 44 45 45 46 47 48 49 50
34 35 35 35 35 35 36 36 37 37 37 37 37 36 37 37 37 37 37 37 37 38 37 37 38 39 39 40 41 42 42 42 43 43 43 43 44 45 47 48 48 49 50
35 35 35 36 36 36 37 37 38 37 37 36 36 36 37 37 37 37 37 37 37 37 37 37 37 38 39 39 39 39 39 40 40 41 42 42 43 44 45 46 47 47 48
35 36 37 37 37 37 37 38 38 37 37 37 37 37 36 36 37 37 38 38 38 38 38 37 37 37 38 38 38 38 39 39 40 40 41 42 42 43 43 43 44 45 46
34 35 36 36 36 36 37 36 36 36 36 36 37 37 37 36 36 36 36 36 36 37 37 36 37 37 37 37 38 38 38 39 39 40 40 41 41 41 41 42 43 44 45
32 32 33 34 34 34 34 35 35 35 35 35 35 36 35 35 35 35 35 35 36 35 36 36 37 37 37 37 37 37 37 38 38 38 38 39 39 40 40 41 41 42 42

GEFSMW_500_meanwind_216.txt.gz
Wind_Speed
31 31 31 30 30 29 29 30 30 30 30 30 31 31 32 32 33 34 36 36 37 38 38 38 38 38 38 38 38 38 38 38 38 37 38 38 39 40 40 40 40 40 40
32 32 32 32 31 31 30 29 30 30 30 30 31 31 31 32 34 34 36 36 36 36 37 38 38 38 39 39 39 39 40 39 39 39 39 39 39 40 40 40 41 41 41
32 33 33 33 33 32 31 30 30 30 30 30 31 31 31 32 33 34 35 35 36 37 37 38 38 39 39 39 39 39 40 40 40 40 41 41 41 41 42 42 42 42 42
32 32 32 33 33 32 32 31 31 31 31 31 31 31 31 32 33 33 34 35 36 37 37 37 38 39 39 40 39 39 39 39 39 39 40 41 42 42 42 42 43 44 45
33 33 32 32 33 33 33 32 32 32 32 32 32 32 32 32 33 33 34 35 37 38 37 37 38 38 39 39 39 39 39 40 40 40 40 40 41 42 42 43 43 44 45
33 33 33 33 33 33 33 33 33 33 32 33 33 32 32 33 34 34 35 36 36 37 37 37 39 39 39 39 40 40 40 41 40 41 41 41 42 43 43 43 43 44 45
33 33 33 33 34 33 33 33 33 33 33 33 33 33 33 33 33 34 34 35 36 36 37 38 39 40 40 40 41 42 42 42 41 42 42 42 42 42 43 44 45 45 45
33 34 34 33 34 34 34 34 34 33 33 33 34 34 33 33 34 34 34 33 34 36 37 39 39 38 39 39 40 41 42 42 41 42 42 43 43 43 43 44 45 46 46
32 33 34 34 33 33 34 34 34 33 33 33 33 34 33 33 34 34 34 34 34 34 36 38 38 38 39 40 41 41 42 43 43 42 42 42 43 44 44 45 46 47 47
32 33 33 33 33 33 33 33 34 34 34 33 33 33 33 33 34 34 34 34 34 35 36 37 38 38 40 41 41 42 42 43 43 43 43 43 43 43 45 46 47 48 48
31 32 32 32 33 33 33 33 33 34 33 33 33 33 33 34 34 34 33 33 34 35 36 36 36 37 38 39 40 41 41 42 43 43 44 44 44 44 45 46 47 47 48
31 32 33 33 33 33 33 34 34 33 33 33 33 34 34 34 34 33 33 33 33 34 35 35 35 36 36 37 39 41 42 42 43 43 43 44 45 45 45 46 47 47 47
31 32 34 34 34 34 34 34 34 34 33 33 34 34 34 34 34 34 34 34 34 34 34 35 35 35 36 37 38 40 42 42 43 43 44 44 44 45 46 46 46 46 46
32 33 34 34 34 35 35 35 34 34 34 34 34 34 34 34 34 34 34 34 34 34 35 36 36 35 36 37 37 38 40 41 42 43 43 44 45 45 46 46 46 46 46
32 32 33 34 35 34 35 34 34 34 34 34 34 34 34 34 34 34 34 35 35 35 35 35 36 36 36 37 38 38 39 41 41 43 44 44 45 46 46 47 47 47 47
32 33 33 34 34 34 34 34 34 34 34 35 35 35 35 35 35 35 35 36 36 35 35 36 36 37 37 38 39 40 40 41 42 43 44 44 45 46 46 46 46 46 46
31 32 33 34 34 34 34 33 33 34 35 35 35 36 36 36 36 36 36 36 36 36 36 37 37 37 38 38 39 41 41 41 42 43 43 44 45 45 45 45 45 46 46
31 32 33 33 34 35 34 34 34 34 35 36 36 37 36 37 37 36 36 36 36 37 37 38 38 38 38 39 39 40 40 40 41 42 43 43 43 44 44 45 45 46 47
32 33 34 34 34 35 35 34 34 34 35 36 36 36 37 36 36 36 36 37 37 38 38 39 39 39 39 39 39 40 39 40 40 41 42 43 43 43 44 45 45 46 46
32 33 34 34 34 35 35 35 35 34 34 35 35 35 35 35 35 36 36 36 37 38 39 39 40 40 39 40 39 40 40 40 40 41 42 43 44 44 44 45 45 46 46
32 33 33 34 34 35 35 36 35 35 35 34 34 35 35 35 35 35 36 36 36 37 37 38 38 38 38 38 39 39 40 41 41 41 41 42 43 44 44 45 45 45 45
32 32 33 33 34 35 35 36 36 35 35 35 35 36 35 35 35 35 35 35 35 36 36 36 37 37 37 37 38 39 39 40 40 41 41 41 42 43 44 44 44 45 45
32 33 33 34 35 35 36 37 37 36 36 36 36 36 35 35 35 35 35 35 35 36 36 37 37 37 37 38 38 38 39 39 39 40 40 41 41 42 43 43 44 45 46
32 32 33 34 35 35 36 37 38 37 36 35 35 35 35 35 35 35 35 36 37 37 37 38 38 38 38 38 39 39 40 40 40 40 40 40 41 42 43 43 43 44 44
31 32 32 32 33 34 34 35 36 36 35 35 34 35 35 35 35 35 36 36 36 37 37 37 37 37 38 38 39 39 39 40 40 40 40 41 41 42 42 43 43 43 43
30 31 31 31 31 31 31 32 33 34 34 34 34 34 35 35 35 36 36 36 36 36 37 37 37 37 37 37 38 39 39 39 39 39 40 40 41 41 42 42 42 42 41

GEFSMW_500_meanwind_222.txt.gz
Wind_Speed
38 37 37 37 36 36 35 34 33 34 34 34 33 33 33 33 33 33 33 34 34 34 35 35 35 36 37 37 37 37 37 37 37 37 37 37 38 37 37 37 38 39 39
38 37 38 38 37 37 36 35 34 34 34 34 34 34 34 34 34 33 33 33 34 35 35 36 36 37 37 38 38 38 38 38 39 39 38 38 38 37 37 37 38 39 39
38 37 38 38 38 38 37 36 35 35 35 35 35 35 35 34 35 34 33 34 34 35 36 37 38 38 38 38 38 38 38 39 39 39 40 39 39 39 39 39 39 39 39
38 38 38 38 39 38 38 37 37 36 36 35 35 35 34 34 35 35 35 35 35 35 36 36 37 38 38 38 38 39 39 40 40 41 41 42 41 42 40 41 41 41 42
37 37 37 38 39 38 38 38 37 37 37 36 36 35 35 35 35 35 35 36 37 37 36 37 37 37 38 39 39 39 40 40 41 41 41 41 41 42 42 42 42 42 43
36 37 37 38 39 39 39 38 38 38 38 37 37 36 36 35 35 35 35 36 36 37 37 38 38 38 39 39 40 40 40 41 41 40 40 40 41 41 42 42 42 42 42
36 36 37 38 39 39 39 39 38 38 38 38 38 38 37 36 36 36 36 36 36 36 38 38 38 39 39 39 39 40 40 41 41 42 42 42 42 42 42 43 42 42 42
35 36 36 37 38 38 38 39 38 38 38 39 39 38 38 37 37 37 36 36 36 36 37 37 38 38 39 39 40 40 41 41 41 41 42 42 43 43 43 44 44 43 43
34 35 35 36 37 38 38 39 39 39 39 39 40 39 39 39 38 37 37 37 37 37 37 38 38 39 39 40 41 40 40 40 41 42 42 43 43 43 44 44 45 45 45
34 34 35 36 37 37 38 38 39 39 39 40 40 40 39 39 38 38 38 38 38 38 38 38 39 40 40 41 40 39 40 41 41 42 43 43 43 44 45 46 45 46 47
33 33 34 35 35 35 36 38 38 39 39 40 40 40 39 39 39 39 39 38 37 37 38 38 38 39 39 39 39 39 40 41 42 42 43 43 44 45 46 46 46 47 47
32 33 34 34 35 35 36 37 38 38 39 40 40 40 40 39 39 40 39 39 38 38 38 38 38 39 39 39 39 39 40 41 42 42 43 44 44 45 45 46 46 46 47
32 33 33 34 34 35 36 37 38 38 39 40 40 40 40 40 39 39 39 39 39 38 38 38 39 38 38 38 39 39 38 39 40 41 42 42 43 44 44 44 45 46 46
32 32 33 34 35 36 37 37 38 38 39 40 40 40 40 40 40 39 39 39 39 39 39 39 38 38 38 38 39 39 39 39 40 40 41 42 42 42 44 44 45 46 46
32 33 33 33 34 35 36 36 37 37 38 39 39 40 40 40 40 39 39 39 39 39 39 38 38 38 38 39 39 40 39 39 40 40 41 42 43 43 44 45 46 46 46
33 33 33 34 34 34 35 35 36 36 37 38 38 39 39 39 39 39 38 38 39 39 39 38 38 39 39 39 40 40 40 40 40 40 41 42 43 44 45 45 45 46 46
32 32 33 33 33 34 34 34 34 34 36 37 37 38 38 39 39 39 39 38 39 39 39 39 39 38 38 39 39 40 41 41 41 41 42 43 44 45 45 45 46 47 47
32 32 32 33 32 33 34 33 33 34 35 36 36 36 37 37 37 37 38 38 38 38 39 39 39 39 39 39 40 40 40 40 41 41 41 42 42 42 43 43 44 45 45
32 32 33 33 33 33 34 34 34 35 35 35 35 35 36 36 37 37 37 37 37 38 38 39 39 39 39 39 40 40 39 39 40 39 39 39 40 41 42 42 43 44 45
31 32 32 33 33 34 35 35 35 35 35 35 36 35 36 36 37 37 38 38 38 39 39 39 39 39 39 39 39 39 39 39 39 39 39 39 39 40 41 41 42 43 44
32 32 32 33 34 35 35 36 36 36 36 36 36 36 36 36 37 38 38 39 39 39 39 38 38 38 38 38 38 39 39 39 38 38 38 39 40 40 40 40 41 42 43
32 32 33 33 34 35 35 36 37 37 37 37 37 37 37 37 38 39 39 39 39 39 39 39 38 38 38 38 39 39 39 39 39 39 39 39 39 40 40 40 41 41 42
31 32 33 33 33 34 34 35 36 37 37 38 38 38 38 38 38 39 39 38 38 38 39 39 38 38 37 38 38 38 38 38 39 39 39 39 39 40 40 40 41 42 43
30 31 31 31 32 32 33 34 35 35 36 37 37 38 38 38 37 38 38 37 37 37 37 37 37 37 37 37 37 38 38 38 38 38 39 39 39 40 40 40 41 42 43
30 30 30 30 30 30 31 32 33 33 33 34 35 36 36 36 36 36 37 37 36 36 36 36 36 36 36 36 37 37 37 38 38 38 38 39 39 40 40 41 41 42 42
29 29 29 29 29 29 30 30 31 31 31 31 32 33 33 34 34 35 35 35 35 35 35 36 36 36 36 36 36 36 37 37 37 38 38 38 39 40 41 41 42 42 42